Location: Any
(49.8819°N, 4.2211°E)
Time: 23:10:34
(UTC+00:00)

Daily predictions for brighter satellites

Satellite Brightness Start Highest point End
(mag) Time Altitude Azimuth Time Altitude Azimuth Time Altitude Azimuth
CORIOLIS 4.5 16:16:30 10° SE 16:21:31 43° ENE 16:26:36 10° N
ERS-2 1.4 16:20:02 10° SSE 16:22:57 79° ENE 16:25:53 10° NNW
USA 307 2.7 16:19:27 10° WNW 16:23:19 86° SSW 16:27:10 10° ESE
Cosmos 2227 Rocket 2.5 16:19:08 10° SW 16:24:46 68° WNW 16:30:26 10° NNE
GRACE-FO 1 4.5 16:22:38 10° S 16:26:12 72° E 16:29:46 10° N
Cosmos 44 3.8 16:20:56 10° NW 16:26:21 75° SW 16:31:31 10° SSE
GRACE-FO 2 4.5 16:23:03 10° S 16:26:38 73° E 16:30:12 10° N
Cosmos 1140 Rocket 3.9 16:22:07 10° NNW 16:27:01 40° ENE 16:31:51 10° SE
SAR-Lupe-2 3.5 16:26:39 10° SSE 16:30:12 68° ENE 16:33:48 10° N
Cosmos 1666 2.7 16:30:21 10° N 16:33:47 47° ENE 16:37:12 10° SSE
ARGOS 3.9 16:28:42 10° S 16:34:03 61° WSW 16:39:27 10° NNW
NOSS 8 (A) 4.5 16:32:53 10° SSW 16:36:37 61° SE 16:39:23 12° NE
Cosmos 1603 4.1 16:31:30 10° NNW 16:36:57 42° NE 16:42:17 10° ESE
DMSP B5D2-2 4.3 16:33:32 10° NNE 16:38:38 51° E 16:43:42 10° S
PSLV R/B 4.3 16:34:40 10° S 16:38:51 57° W 16:43:06 10° NNW
Cosmos 1076 Rocket 3.5 16:36:40 10° N 16:41:05 86° E 16:45:25 10° S
CZ-2C R/B 4.4 16:37:48 10° N 16:42:18 29° WNW 16:46:43 10° WSW
Meteor 1-31 Rocket 2.9 16:39:54 10° SE 16:43:27 45° ENE 16:47:01 10° N
Cosmos 1544 3.6 16:42:43 10° NNW 16:45:55 54° W 16:49:05 10° S
USA 306 3.4 16:44:22 10° W 16:46:21 27° SW 16:48:14 10° SSE
SJ-7 4.4 16:44:27 10° SSE 16:48:26 86° WSW 16:52:29 10° NNW
SL-16 R/B 3.6 16:44:32 10° NW 16:49:54 44° WSW 16:55:14 10° S
Cosmos 1238 Rocket 4.4 16:46:54 10° SW 16:49:59 28° WNW 16:52:47 10° NNW
ATLAS CENTAUR R/B 2.5 16:46:15 10° WNW 16:50:09 87° SSW 16:57:43 10° SE
Cosmos 1602 3.5 16:48:58 10° N 16:52:41 65° ENE 16:56:23 10° SSE
RESURS DK-1 3.8 16:51:57 10° N 16:54:54 19° NE 16:56:13 16° ENE
USA 305 2.9 16:51:16 10° WNW 16:55:04 69° SSW 16:58:53 10° SE
Cosmos 1607 4.2 16:50:34 10° SW 16:56:55 74° NW 17:03:17 11° NE
CZ-4B R/B 3.7 16:54:38 10° SE 16:59:26 45° ENE 17:04:07 10° N
Cosmos 1943 3.1 16:55:22 10° NNW 17:01:03 80° ENE 17:06:42 10° SSE
Cosmos 1782 3.9 16:58:38 10° SE 17:01:42 22° E 17:03:03 19° ENE
Helios 1A 3.8 16:58:42 12° NE 17:01:59 30° E 17:05:40 10° SSE
Cosmos 1812 Rocket 4.0 16:58:00 10° SSE 17:02:00 37° E 17:06:03 10° NNE
ATLAS 2AS CENTAUR R/B 3.0 16:56:18 10° NW 17:03:01 45° NNE 17:09:08 11° ESE
Cosmos 1500 3.9 17:00:55 10° NNW 17:04:21 51° W 17:07:47 10° S
SMAP 3.1 17:01:25 10° SSE 17:06:04 85° WSW 17:10:46 10° NNW
Helios 1B rocket 3.8 17:02:55 10° S 17:06:39 41° W 17:10:25 10° NNW
NOAA 6 4.3 17:02:28 10° SE 17:07:17 43° ENE 17:12:06 10° N
CZ-4B R/B 3.6 17:05:52 10° SSE 17:09:28 89° W 17:13:08 10° NNW
Cosmos 407 Rocket 3.4 17:07:19 10° NNW 17:12:29 66° ENE 17:17:34 10° SSE
Cosmos 2297 Rocket 4.0 17:08:44 10° W 17:13:16 24° NW 17:17:51 10° NNE
Radarsat Rocket 4.1 17:08:15 10° SE 17:13:52 53° ENE 17:19:51 10° N
SOZ 4.0 17:12:32 10° WSW 17:14:43 87° NNW 17:16:20 26° ENE
Cosmos 405 Rocket 4.5 17:12:37 10° SW 17:16:04 32° WNW 17:19:34 10° N
ISS -1.1 17:16:07 10° W 17:18:39 20° SW 17:21:11 10° S
Cosmos 2219 4.1 17:14:09 10° SW 17:19:31 45° NW 17:24:56 10° NNE
Cosmos 2251 Rocket 3.5 17:14:53 10° NNW 17:20:16 80° ENE 17:25:39 10° SSE
Cosmos 220 Rocket 4.3 17:19:55 10° NNW 17:24:03 43° ENE 17:27:53 11° SE
Cosmos 1954 Rocket 4.4 17:22:00 10° NNW 17:27:00 41° ENE 17:31:27 12° SE
Cosmos 2056 Rocket 4.5 17:23:14 10° SSE 17:27:43 28° E 17:28:45 26° E
Lacrosse 5 2.7 17:25:41 10° SSW 17:30:08 32° SE 17:31:43 26° E
CZ-4 R/B 4.4 17:26:54 10° SSE 17:30:53 55° ENE 17:34:53 10° N
COSMO-SKYMED 1 2.9 17:29:30 26° NE 17:31:28 41° E 17:35:35 10° S
Cosmos-2242 3.0 17:27:10 10° S 17:31:30 88° W 17:35:52 10° N
Lacrosse 4 Rocket 2.2 17:28:31 10° NW 17:32:47 55° WSW 17:36:55 10° SSE
Cosmos 1833 Rocket 4.0 17:29:30 10° N 17:33:42 21° NE 17:33:48 21° NE
Cosmos 2082 4.4 17:29:04 10° SW 17:34:32 52° NW 17:39:46 11° NNE
Cosmos 1553 Rocket 4.3 17:32:41 10° N 17:38:40 41° ENE 17:44:30 10° SE
APEX 2.2 17:36:59 10° SSW 17:39:56 83° ESE 17:39:58 83° ESE
Meteor 2-2 Rocket 4.2 17:35:30 10° S 17:41:14 75° E 17:47:08 10° NNE
USA 234 3.4 17:37:35 26° ENE 17:41:19 58° SE 17:47:44 10° SW
Meteor 1-25 Rocket 4.3 17:36:11 10° NNW 17:41:53 80° W 17:47:28 10° S
Cosmos 2221 3.4 17:38:17 10° SSE 17:41:02 29° ESE 17:41:02 29° ESE
Cosmos 2344 3.5 17:35:04 10° SSW 17:42:31 65° SE 17:47:04 25° NE
Cosmos 1190 Rocket 3.9 17:39:16 10° NNW 17:44:35 72° ENE 17:49:52 10° SSE
Cosmos 1812 3.0 17:40:59 10° SSW 17:44:37 62° WNW 17:47:41 14° N
Cosmos 1818 3.5 17:41:01 10° SSW 17:46:24 66° SE 17:48:46 34° NE
Cosmos 2026 Rocket 3.9 17:42:09 10° S 17:48:20 67° E 17:54:40 10° NNE
USA 276 2.8 17:46:18 10° WSW 17:48:03 41° WSW 17:48:03 41° WSW
Cosmos 1371 Rocket 4.3 17:46:55 10° S 17:51:50 42° ESE 17:52:32 40° E
Cosmos 2195 Rocket 4.4 17:49:09 10° S 17:55:28 86° E 18:01:47 10° N
CZ-4B R/B 4.4 18:01:42 26° NNE 18:01:42 26° NNE 18:04:48 10° N
Cosmos 1844 Rocket 2.7 17:55:05 10° S 18:00:31 58° ESE 18:02:02 43° ENE
Cosmos 2263 Rocket 3.3 17:55:31 10° WSW 18:00:43 40° NW 18:05:03 15° NNE
Meteor 1-26 Rocket 4.2 17:56:11 10° S 18:01:36 57° E 18:04:18 30° NNE
Cosmos 1766 Rocket 3.4 17:59:09 10° N 18:03:31 70° E 18:07:49 10° SSE
YAOGAN 1 3.3 18:07:02 37° N 18:07:02 37° N 18:09:50 10° N
Cosmos 1092 Rocket 3.9 17:59:43 10° S 18:05:51 89° ESE 18:12:03 10° N
Cosmos 1933 3.2 18:03:08 10° S 18:07:08 83° W 18:07:55 56° N
Cosmos 1420 Rocket 4.0 18:02:34 10° S 18:07:42 60° ESE 18:08:28 54° ENE
Cosmos 2227 4.4 18:03:27 10° SW 18:09:12 70° WNW 18:12:32 26° NNE
Cosmos 2227 Rocket 4.3 18:06:01 10° W 18:09:55 19° NW 18:13:48 10° N
YAOGAN 3 4.4 18:06:17 10° SSE 18:10:36 81° ENE 18:14:56 10° NNW
ADEOS 3.5 18:05:36 10° SSE 18:10:49 86° WSW 18:16:06 10° NNW
Cosmos 2082 Rocket 4.1 18:07:29 10° N 18:09:21 15° NNE 18:09:21 15° NNE
Meteor 1-5 Rocket 4.2 18:06:54 10° NNW 18:12:37 88° W 18:18:29 10° S
Cosmos 1624 Rocket 3.9 18:10:23 10° S 18:15:31 62° ESE 18:15:40 62° E
BREEZE-M DEB (TANK) 4.0 18:14:25 10° W 18:15:04 19° W 18:15:04 19° W
CZ-4B R/B 3.9 18:20:41 37° N 18:20:41 37° N 18:23:15 10° NNW
SKYMED 2 3.8 18:18:07 39° N 18:19:39 68° WNW 18:23:57 10° SSW
Cosmos 1417 Rocket 4.5 18:16:59 10° N 18:23:13 58° ENE 18:24:06 53° ESE
SL-08 R/B 3.2 18:25:44 77° N 18:26:03 86° WNW 18:30:41 10° SSW
Cosmos 192 4.3 18:23:06 10° SSW 18:27:59 79° WNW 18:28:35 67° N
RESURS DK-1 3.3 18:29:05 10° NW 18:31:56 42° NW 18:31:56 42° NW
Cosmos 1782 4.3 18:33:49 10° SW 18:37:24 34° WNW 18:38:16 30° NW
Cosmos 676 Rocket 4.2 18:33:09 10° NNW 18:38:27 70° WSW 18:40:04 44° S
ATLAS 2AS CENTAUR R/B 3.0 18:47:26 10° NW 18:54:13 61° SW 18:56:38 39° S
Cosmos 1241 Rocket 4.4 18:54:38 10° SW 19:00:35 78° SW 19:00:35 78° SW
ADEOS Rocket 4.5 19:09:44 23° N 19:09:44 23° N 19:11:51 10° NNW
Cosmos 2056 Rocket 4.3 19:04:16 10° SW 19:09:06 51° WNW 19:09:06 51° WNW
Cosmos 1844 4.3 19:06:56 10° SW 19:12:19 54° WNW 19:12:19 54° WNW
Lacrosse 5 3.1 19:07:46 10° WSW 19:10:56 38° WSW 19:10:56 38° WSW
COSMOS 2455 4.0 19:07:10 10° SSW 19:10:14 32° SSW 19:10:14 32° SSW
Timation 2 Rocket 4.4 19:09:48 10° SW 19:15:38 54° NW 19:15:41 54° NW
Cosmos 1833 Rocket 4.2 19:12:51 10° NNW 19:15:30 29° NNW 19:15:30 29° NNW
USA 234 3.5 19:24:56 64° NW 19:24:56 64° NW 19:30:54 10° WSW
Cosmos 1844 Rocket 4.4 19:39:50 10° WSW 19:43:43 29° WNW 19:43:43 29° WNW
Cosmos 2344 4.3 19:50:28 10° W 19:57:06 42° NNW 19:57:06 42° NNW
